This is the latest recevied weather packets stored in our database for station/object KT2UU-13. If no packets are shown the sender has not sent any weather packets the latest 10 day(s).
| Time | Temp. | Humidity | Pressure | Rain* | Wind** | Luminosity | Snow |
|---|---|---|---|---|---|---|---|
| 1777498370 | 26.67° C | 70% | 1011.6 hPa | 0 mm | - | - | - |
| 1777498068 | 26.11° C | 73% | 1011.6 hPa | 0 mm | - | - | - |
| 1777497764 | 25.56° C | 73% | 1011.7 hPa | 0 mm | - | - | - |
| 1777497462 | 25.56° C | 73% | 1011.8 hPa | 0 mm | - | - | - |
| 1777497157 | 25.56° C | 72% | 1011.7 hPa | 0 mm | - | - | - |
| 1777496855 | 25.56° C | 73% | 1011.7 hPa | 0 mm | - | - | - |
| 1777496552 | 26.11° C | 72% | 1012 hPa | 0 mm | - | - | - |
| 1777496247 | 26.11° C | 73% | 1011.9 hPa | 0 mm | - | - | - |
| 1777495944 | 26.11° C | 72% | 1011.7 hPa | 0 mm | - | - | - |
| 1777495639 | 26.11° C | 73% | 1011.7 hPa | 0 mm | - | - | - |
| 1777495336 | 26.11° C | 71% | 1011.8 hPa | 0 mm | - | - | - |
| 1777495033 | 26.67° C | 72% | 1011.8 hPa | 0 mm | - | - | - |
| 1777494730 | 26.67° C | 70% | 1012 hPa | 0 mm | - | - | - |
| 1777494428 | 26.11° C | 74% | 1011.8 hPa | 0 mm | - | - | - |
| 1777494124 | 25.56° C | 73% | 1012 hPa | 0 mm | - | - | - |
| 1777493821 | 26.11° C | 73% | 1012 hPa | 0 mm | - | - | - |
| 1777493519 | 26.11° C | 73% | 1012.3 hPa | 0 mm | - | - | - |
| 1777493216 | 26.67° C | 72% | 1012.5 hPa | 0 mm | - | - | - |
| 1777492912 | 26.67° C | 72% | 1012.5 hPa | 0 mm | - | - | - |
| 1777492609 | 26.67° C | 72% | 1012.7 hPa | 0 mm | - | - | - |
| 1777492304 | 27.22° C | 73% | 1012.8 hPa | 0 mm | - | - | - |
| 1777492002 | 26.11° C | 74% | 1013 hPa | 0 mm | - | - | - |
| 1777491698 | 26.67° C | 74% | 1013 hPa | 0 mm | - | - | - |
| 1777491396 | 26.11° C | 74% | 1013 hPa | 0 mm | - | - | - |
| 1777491093 | 26.11° C | 74% | 1013.3 hPa | 0 mm | - | - | - |
* Rain latest hour (hover to see other rain measurements)
** Current wind speed in m/s (hover to see current wind gust speed)